Location: Camp at the Woods
(43.2055°N, 93.0905°W)
Time: 06:39:22
(UTC+00:00)

Cosmos 1302 Rocket - Pass Details

Date: 05 December 2023
Orbit: 754 x 775 km, 74.0° (Epoch: 29 February)

Event Time Altitude Azimuth Distance (km) Brightness Sun altitude
Exits shadow 12:48:02 - 336° (NNW) 3,211 6.8 -7.4°
Reaches altitude 10° 12:50:24 10° 333° (NNW) 2,292 6.0 -7.0°
Maximum altitude 12:55:31 61° 254° (WSW) 863 4.1 -6.2°
Drops below altitude 10° 13:00:37 10° 175° (S) 2,288 6.9 -5.3°
Sets 13:03:00 0° 172° (S) 3,212 7.8 -4.9°
